TimeEET,TemperatureF,Dew PointF,Humidity,Sea Level PressureIn,VisibilityMPH,Wind Direction,Wind SpeedMPH,Gust SpeedMPH,PrecipitationIn,Events,Conditions,WindDirDegrees,DateUTC
12:20 AM,41.0,35.6,81,30.06,6.2,East,8.1,-,N/A,,Mostly Cloudy,80,2012-11-13 22:20:00
12:50 AM,41.0,37.4,87,30.06,6.2,East,5.8,-,N/A,,Mostly Cloudy,80,2012-11-13 22:50:00
1:20 AM,42.8,35.6,76,30.06,6.2,East,8.1,-,N/A,,Mostly Cloudy,100,2012-11-13 23:20:00
1:50 AM,41.0,37.4,87,30.06,6.2,NNE,4.6,-,N/A,,Mostly Cloudy,30,2012-11-13 23:50:00
2:00 AM,41,37,79,,12,NNE,4.6,,,,Partly Cloudy,30,2012-11-14 00:00:00
2:20 AM,41.0,37.4,87,30.06,6.2,Variable,2.3,-,N/A,,Mostly Cloudy,0,2012-11-14 00:20:00
2:50 AM,39.2,37.4,93,30.06,6.2,NW,4.6,-,N/A,,Mostly Cloudy,310,2012-11-14 00:50:00
3:20 AM,41.0,37.4,87,30.06,6.2,Variable,1.2,-,N/A,,Mostly Cloudy,0,2012-11-14 01:20:00
3:50 AM,39.2,37.4,93,30.06,6.2,Calm,Calm,-,N/A,,Mostly Cloudy,0,2012-11-14 01:50:00
4:20 AM,39.2,37.4,93,30.06,6.2,West,3.5,-,N/A,,Mostly Cloudy,280,2012-11-14 02:20:00
4:50 AM,39.2,37.4,93,30.06,6.2,WNW,4.6,-,N/A,,Mostly Cloudy,300,2012-11-14 02:50:00
5:20 AM,41.0,37.4,87,30.06,6.2,WNW,8.1,-,N/A,,Mostly Cloudy,300,2012-11-14 03:20:00
5:50 AM,39.2,37.4,93,30.06,6.2,Variable,4.6,-,N/A,,Mostly Cloudy,0,2012-11-14 03:50:00
6:20 AM,41.0,37.4,87,30.06,6.2,NW,3.5,-,N/A,,Mostly Cloudy,310,2012-11-14 04:20:00
6:50 AM,41.0,37.4,87,30.09,6.2,Variable,2.3,-,N/A,,Mostly Cloudy,0,2012-11-14 04:50:00
7:20 AM,41.0,37.4,87,30.09,6.2,Variable,1.2,-,N/A,,Mostly Cloudy,0,2012-11-14 05:20:00
7:50 AM,41.0,39.2,93,30.09,6.2,Variable,2.3,-,N/A,Rain,Light Rain,0,2012-11-14 05:50:00
8:00 AM,41,38,85,,12,WNW,2.3,,,Rain,Light Rain,300,2012-11-14 06:00:00
8:20 AM,42.8,37.4,81,30.09,6.2,West,3.5,-,N/A,,Mostly Cloudy,270,2012-11-14 06:20:00
8:50 AM,44.6,37.4,76,30.09,6.2,Variable,2.3,-,N/A,,Mostly Cloudy,0,2012-11-14 06:50:00
9:20 AM,44.6,37.4,76,30.09,6.2,West,8.1,-,N/A,,Mostly Cloudy,270,2012-11-14 07:20:00
9:50 AM,48.2,37.4,66,30.09,6.2,West,4.6,-,N/A,,Mostly Cloudy,260,2012-11-14 07:50:00
10:20 AM,50.0,35.6,58,30.09,6.2,Variable,1.2,-,N/A,,Mostly Cloudy,0,2012-11-14 08:20:00
10:50 AM,50.0,35.6,58,30.06,6.2,SSW,4.6,-,N/A,,Mostly Cloudy,200,2012-11-14 08:50:00
11:20 AM,50.0,35.6,58,30.06,6.2,West,5.8,-,N/A,,Mostly Cloudy,280,2012-11-14 09:20:00
11:50 AM,50.0,35.6,58,30.06,6.2,West,6.9,-,N/A,,Mostly Cloudy,280,2012-11-14 09:50:00
12:20 PM,51.8,33.8,50,30.04,6.2,Variable,2.3,-,N/A,,Mostly Cloudy,0,2012-11-14 10:20:00
12:50 PM,51.8,33.8,50,30.04,6.2,NW,5.8,-,N/A,,Mostly Cloudy,320,2012-11-14 10:50:00
1:20 PM,51.8,32.0,47,30.04,6.2,West,4.6,-,N/A,,Mostly Cloudy,280,2012-11-14 11:20:00
1:50 PM,51.8,32.0,47,30.04,6.2,Variable,2.3,-,N/A,,Mostly Cloudy,0,2012-11-14 11:50:00
2:00 PM,52,31,33,,12,NNW,2.3,,,,Partly Cloudy,340,2012-11-14 12:00:00
2:20 PM,51.8,35.6,54,30.04,6.2,North,8.1,-,N/A,,Mostly Cloudy,350,2012-11-14 12:20:00
2:50 PM,51.8,35.6,54,30.06,6.2,North,5.8,-,N/A,,Mostly Cloudy,360,2012-11-14 12:50:00
3:20 PM,50.0,37.4,62,30.06,6.2,NE,4.6,-,N/A,,Mostly Cloudy,50,2012-11-14 13:20:00
3:50 PM,48.2,35.6,62,30.06,6.2,NNW,6.9,-,N/A,,Mostly Cloudy,330,2012-11-14 13:50:00
4:20 PM,46.4,35.6,66,30.09,6.2,West,9.2,-,N/A,,Mostly Cloudy,260,2012-11-14 14:20:00
4:50 PM,44.6,35.6,71,30.09,6.2,West,9.2,-,N/A,,Mostly Cloudy,280,2012-11-14 14:50:00
5:20 PM,42.8,35.6,76,30.12,6.2,WSW,6.9,-,N/A,,Mostly Cloudy,240,2012-11-14 15:20:00
5:50 PM,44.6,35.6,71,30.12,6.2,West,12.7,-,N/A,,Mostly Cloudy,280,2012-11-14 15:50:00
6:20 PM,42.8,33.8,70,30.12,6.2,West,9.2,-,N/A,,Scattered Clouds,270,2012-11-14 16:20:00
6:50 PM,41.0,33.8,76,30.12,6.2,West,11.5,-,N/A,,Scattered Clouds,270,2012-11-14 16:50:00
7:20 PM,39.2,33.8,81,30.15,6.2,West,8.1,-,N/A,,Scattered Clouds,270,2012-11-14 17:20:00
7:50 PM,37.4,33.8,87,30.15,6.2,WSW,5.8,-,N/A,,Partly Cloudy,250,2012-11-14 17:50:00
8:00 PM,38,33,77,,12,WSW,5.8,,,,Scattered Clouds,250,2012-11-14 18:00:00
8:20 PM,39.2,33.8,81,30.15,6.2,SW,8.1,-,N/A,,Partly Cloudy,230,2012-11-14 18:20:00
8:50 PM,39.2,33.8,81,30.15,6.2,SW,4.6,-,N/A,,Partly Cloudy,230,2012-11-14 18:50:00
9:20 PM,37.4,33.8,87,30.15,6.2,SW,6.9,-,N/A,,Partly Cloudy,230,2012-11-14 19:20:00
9:50 PM,39.2,33.8,81,30.18,6.2,West,5.8,-,N/A,,Partly Cloudy,280,2012-11-14 19:50:00
10:20 PM,37.4,33.8,87,30.18,6.2,NW,6.9,-,N/A,,Partly Cloudy,320,2012-11-14 20:20:00
10:50 PM,35.6,32.0,87,30.18,-9999.0,NNE,4.6,-,N/A,,Clear,20,2012-11-14 20:50:00
11:20 PM,33.8,32.0,93,30.18,-9999.0,North,5.8,-,N/A,,Clear,350,2012-11-14 21:20:00
11:50 PM,32.0,30.2,93,30.18,-9999.0,SE,5.8,-,N/A,,Clear,140,2012-11-14 21:50:00